Year,Month,Day,Hour,Minute,Value (Times are PST for temperature in C)
2018,04,02,00,00,3.10
2018,04,02,00,01,3.10
2018,04,02,00,02,3.10
2018,04,02,00,03,3.10
2018,04,02,00,04,3.10
2018,04,02,00,05,3.10
2018,04,02,00,06,3.10
2018,04,02,00,07,3.10
2018,04,02,00,08,3.10
2018,04,02,00,09,3.10
2018,04,02,00,10,3.10
2018,04,02,00,11,3.10
2018,04,02,00,12,3.10
2018,04,02,00,13,3.10
2018,04,02,00,14,3.10
2018,04,02,00,15,3.10
2018,04,02,00,16,3.10
2018,04,02,00,17,3.10
2018,04,02,00,18,3.10
2018,04,02,00,19,3.10
2018,04,02,00,20,3.10
2018,04,02,00,21,3.10
2018,04,02,00,22,3.10
2018,04,02,00,23,3.10
2018,04,02,00,24,3.10
2018,04,02,00,25,3.10
2018,04,02,00,26,3.10
2018,04,02,00,27,3.10
2018,04,02,00,28,3.10
2018,04,02,00,29,3.10
2018,04,02,00,30,3.00
2018,04,02,00,31,2.90
2018,04,02,00,32,2.90
2018,04,02,00,33,2.90
2018,04,02,00,34,2.90
2018,04,02,00,35,2.90
2018,04,02,00,36,2.90
2018,04,02,00,37,2.90
2018,04,02,00,38,2.90
2018,04,02,00,39,2.90
2018,04,02,00,40,2.90
2018,04,02,00,41,2.90
2018,04,02,00,42,2.90
2018,04,02,00,43,2.90
2018,04,02,00,44,2.90
2018,04,02,00,45,2.90
2018,04,02,00,46,2.90
2018,04,02,00,47,2.90
2018,04,02,00,48,2.90
2018,04,02,00,49,2.90
2018,04,02,00,50,2.90
2018,04,02,00,51,2.90
2018,04,02,00,52,2.90
2018,04,02,00,53,2.90
2018,04,02,00,54,2.90
2018,04,02,00,55,2.90
2018,04,02,00,56,2.90
2018,04,02,00,57,2.90
2018,04,02,00,58,2.90
2018,04,02,00,59,2.90
2018,04,02,01,00,2.90
2018,04,02,01,01,2.90
2018,04,02,01,02,2.90
2018,04,02,01,03,2.90
2018,04,02,01,04,2.90
2018,04,02,01,05,2.90
2018,04,02,01,06,2.90
2018,04,02,01,07,2.90
2018,04,02,01,08,2.90
2018,04,02,01,09,2.90
2018,04,02,01,10,2.90
2018,04,02,01,11,2.90
2018,04,02,01,12,2.90
2018,04,02,01,13,2.90
2018,04,02,01,14,2.90
2018,04,02,01,15,2.90
2018,04,02,01,16,2.90
2018,04,02,01,17,2.90
2018,04,02,01,18,3.00
2018,04,02,01,19,3.10
2018,04,02,01,20,3.10
2018,04,02,01,21,3.10
2018,04,02,01,22,3.10
2018,04,02,01,23,3.10
2018,04,02,01,24,3.10
2018,04,02,01,25,3.20
2018,04,02,01,26,3.20
2018,04,02,01,27,3.30
2018,04,02,01,28,3.30
2018,04,02,01,29,3.30
2018,04,02,01,30,3.30
2018,04,02,01,31,3.30
2018,04,02,01,32,3.30
2018,04,02,01,33,3.30
2018,04,02,01,34,3.30
2018,04,02,01,35,3.30
2018,04,02,01,36,3.30
2018,04,02,01,37,3.30
2018,04,02,01,38,3.30
2018,04,02,01,39,3.30
2018,04,02,01,40,3.30
2018,04,02,01,41,3.30
2018,04,02,01,42,3.30
2018,04,02,01,43,3.30
2018,04,02,01,44,3.30
2018,04,02,01,45,3.30
2018,04,02,01,46,3.30
2018,04,02,01,47,3.30
2018,04,02,01,48,3.30
2018,04,02,01,49,3.30
2018,04,02,01,50,3.30
2018,04,02,01,51,3.30
2018,04,02,01,52,3.30
2018,04,02,01,53,3.20
2018,04,02,01,54,3.20
2018,04,02,01,55,3.20
2018,04,02,01,56,3.20
2018,04,02,01,57,3.20
2018,04,02,01,58,3.20
2018,04,02,01,59,3.20
2018,04,02,02,00,3.20
2018,04,02,02,01,3.10
2018,04,02,02,02,3.10
2018,04,02,02,03,3.10
2018,04,02,02,04,3.10
2018,04,02,02,05,3.10
2018,04,02,02,06,3.10
2018,04,02,02,07,3.10
2018,04,02,02,08,3.10
2018,04,02,02,09,3.10
2018,04,02,02,10,3.10
2018,04,02,02,11,3.10
2018,04,02,02,12,3.10
2018,04,02,02,13,3.00
2018,04,02,02,14,2.90
2018,04,02,02,15,2.90
2018,04,02,02,16,2.90
2018,04,02,02,17,2.90
2018,04,02,02,18,2.90
2018,04,02,02,19,2.90
2018,04,02,02,20,2.90
2018,04,02,02,21,2.90
2018,04,02,02,22,2.90
2018,04,02,02,23,2.90
2018,04,02,02,24,2.90
2018,04,02,02,25,2.80
2018,04,02,02,26,2.80
2018,04,02,02,27,2.80
2018,04,02,02,28,2.80
2018,04,02,02,29,2.80
2018,04,02,02,30,2.80
2018,04,02,02,31,2.80
2018,04,02,02,32,2.80
2018,04,02,02,33,2.80
2018,04,02,02,34,2.80
2018,04,02,02,35,2.70
2018,04,02,02,36,2.70
2018,04,02,02,37,2.70
2018,04,02,02,38,2.70
2018,04,02,02,39,2.70
2018,04,02,02,40,2.70
2018,04,02,02,41,2.70
2018,04,02,02,42,2.70
2018,04,02,02,43,2.70
2018,04,02,02,44,2.70
2018,04,02,02,45,2.70
2018,04,02,02,46,2.70
2018,04,02,02,47,2.70
2018,04,02,02,48,2.70
2018,04,02,02,49,2.60
2018,04,02,02,50,2.60
2018,04,02,02,51,2.60
2018,04,02,02,52,2.50
2018,04,02,02,53,2.50
2018,04,02,02,54,2.50
2018,04,02,02,55,2.40
2018,04,02,02,56,2.40
2018,04,02,02,57,2.30
2018,04,02,02,58,2.30
2018,04,02,02,59,2.30
2018,04,02,03,00,2.20
2018,04,02,03,01,2.20
2018,04,02,03,02,2.20
2018,04,02,03,03,2.20
2018,04,02,03,04,2.20
2018,04,02,03,05,2.20
2018,04,02,03,06,2.20
2018,04,02,03,07,2.20
2018,04,02,03,08,2.20
2018,04,02,03,09,2.10
2018,04,02,03,10,2.10
2018,04,02,03,11,2.10
2018,04,02,03,12,2.10
2018,04,02,03,13,2.10
2018,04,02,03,14,2.10
2018,04,02,03,15,2.10
2018,04,02,03,16,2.00
2018,04,02,03,17,2.00
2018,04,02,03,18,2.00
2018,04,02,03,19,2.00
2018,04,02,03,20,2.00
2018,04,02,03,21,2.00
2018,04,02,03,22,2.00
2018,04,02,03,23,2.00
2018,04,02,03,24,1.90
2018,04,02,03,25,1.90
2018,04,02,03,26,1.90
2018,04,02,03,27,1.90
2018,04,02,03,28,1.90
2018,04,02,03,29,1.90
2018,04,02,03,30,1.90
2018,04,02,03,31,1.90
2018,04,02,03,32,1.90
2018,04,02,03,33,1.90
2018,04,02,03,34,1.90
2018,04,02,03,35,1.90
2018,04,02,03,36,1.80
2018,04,02,03,37,1.80
2018,04,02,03,38,1.80
2018,04,02,03,39,1.80
2018,04,02,03,40,1.80
2018,04,02,03,41,1.80
2018,04,02,03,42,1.80
2018,04,02,03,43,1.80
2018,04,02,03,44,1.80
2018,04,02,03,45,1.80
2018,04,02,03,46,1.80
2018,04,02,03,47,1.80
2018,04,02,03,48,1.80
2018,04,02,03,49,1.80
2018,04,02,03,50,1.80
2018,04,02,03,51,1.80
2018,04,02,03,52,1.80
2018,04,02,03,53,1.80
2018,04,02,03,54,1.80
2018,04,02,03,55,1.80
2018,04,02,03,56,1.80
2018,04,02,03,57,1.80
2018,04,02,03,58,1.80
2018,04,02,03,59,1.80
2018,04,02,04,00,1.80
2018,04,02,04,01,1.80
2018,04,02,04,02,1.80
2018,04,02,04,03,1.80
2018,04,02,04,04,1.80
2018,04,02,04,05,1.80
2018,04,02,04,06,1.80
2018,04,02,04,07,1.70
2018,04,02,04,08,1.70
2018,04,02,04,09,1.70
2018,04,02,04,10,1.70
2018,04,02,04,11,1.70
2018,04,02,04,12,1.60
2018,04,02,04,13,1.60
2018,04,02,04,14,1.60
2018,04,02,04,15,1.60
2018,04,02,04,16,1.50
2018,04,02,04,17,1.50
2018,04,02,04,18,1.50
2018,04,02,04,19,1.50
2018,04,02,04,20,1.40
2018,04,02,04,21,1.40
2018,04,02,04,22,1.40
2018,04,02,04,23,1.40
2018,04,02,04,24,1.30
2018,04,02,04,25,1.30
2018,04,02,04,26,1.30
2018,04,02,04,27,1.30
2018,04,02,04,28,1.30
2018,04,02,04,29,1.20
2018,04,02,04,30,1.20
2018,04,02,04,31,1.20
2018,04,02,04,32,1.20
2018,04,02,04,33,1.10
2018,04,02,04,34,1.10
2018,04,02,04,35,1.10
2018,04,02,04,36,1.10
2018,04,02,04,37,1.10
2018,04,02,04,38,1.10
2018,04,02,04,39,1.00
2018,04,02,04,40,1.00
2018,04,02,04,41,1.00
2018,04,02,04,42,1.00
2018,04,02,04,43,1.00
2018,04,02,04,44,1.00
2018,04,02,04,45,1.00
2018,04,02,04,46,1.00
2018,04,02,04,47,1.00
2018,04,02,04,48,1.10
2018,04,02,04,49,1.10
2018,04,02,04,50,1.20
2018,04,02,04,51,1.20
2018,04,02,04,52,1.20
2018,04,02,04,53,1.30
2018,04,02,04,54,1.30
2018,04,02,04,55,1.30
2018,04,02,04,56,1.30
2018,04,02,04,57,1.30
2018,04,02,04,58,1.30
2018,04,02,04,59,1.30
2018,04,02,05,00,1.40
2018,04,02,05,01,1.40
2018,04,02,05,02,1.40
2018,04,02,05,03,1.40
2018,04,02,05,04,1.50
2018,04,02,05,05,1.50
2018,04,02,05,06,1.50
2018,04,02,05,07,1.50
2018,04,02,05,08,1.50
2018,04,02,05,09,1.50
2018,04,02,05,10,1.50
2018,04,02,05,11,1.40
2018,04,02,05,12,1.40
2018,04,02,05,13,1.40
2018,04,02,05,14,1.40
2018,04,02,05,15,1.40
2018,04,02,05,16,1.40
2018,04,02,05,17,1.40
2018,04,02,05,18,1.40
2018,04,02,05,19,1.40
2018,04,02,05,20,1.40
2018,04,02,05,21,1.30
2018,04,02,05,22,1.40
2018,04,02,05,23,1.30
2018,04,02,05,24,1.30
2018,04,02,05,25,1.30
2018,04,02,05,26,1.30
2018,04,02,05,27,1.30
2018,04,02,05,28,1.30
2018,04,02,05,29,1.30
2018,04,02,05,30,1.30
2018,04,02,05,31,1.30
2018,04,02,05,32,1.30
2018,04,02,05,33,1.30
2018,04,02,05,34,1.20
2018,04,02,05,35,1.20
2018,04,02,05,36,1.20
2018,04,02,05,37,1.20
2018,04,02,05,38,1.10
2018,04,02,05,39,1.10
2018,04,02,05,40,1.10
2018,04,02,05,41,1.00
2018,04,02,05,42,1.00
2018,04,02,05,43,1.00
2018,04,02,05,44,0.90
2018,04,02,05,45,0.90
2018,04,02,05,46,0.80
2018,04,02,05,47,0.80
2018,04,02,05,48,0.80
2018,04,02,05,49,0.80
2018,04,02,05,50,0.80
2018,04,02,05,51,0.70
2018,04,02,05,52,0.70
2018,04,02,05,53,0.60
2018,04,02,05,54,0.60
2018,04,02,05,55,0.60
2018,04,02,05,56,0.50
2018,04,02,05,57,0.50
2018,04,02,05,58,0.50
2018,04,02,05,59,0.40
2018,04,02,06,00,0.40
2018,04,02,06,01,0.40
2018,04,02,06,02,0.40
2018,04,02,06,03,0.40
2018,04,02,06,04,0.30
2018,04,02,06,05,0.30
2018,04,02,06,06,0.30
2018,04,02,06,07,0.20
2018,04,02,06,08,0.20
2018,04,02,06,09,0.20
2018,04,02,06,10,0.20
2018,04,02,06,11,0.10
2018,04,02,06,12,0.10
2018,04,02,06,13,0.10
2018,04,02,06,14,0.10
2018,04,02,06,15,0.10
2018,04,02,06,16,0.10
2018,04,02,06,17,0.10
2018,04,02,06,18,0.10
2018,04,02,06,19,0.10
2018,04,02,06,20,0.00
2018,04,02,06,21,-0.10
2018,04,02,06,22,-0.10
2018,04,02,06,23,-0.10
2018,04,02,06,24,-0.10
2018,04,02,06,25,-0.10
2018,04,02,06,26,-0.10
2018,04,02,06,27,-0.20
2018,04,02,06,28,-0.20
2018,04,02,06,29,-0.20
2018,04,02,06,30,-0.30
2018,04,02,06,31,-0.30
2018,04,02,06,32,-0.30
2018,04,02,06,33,-0.30
2018,04,02,06,34,-0.30
2018,04,02,06,35,-0.30
2018,04,02,06,36,-0.40
2018,04,02,06,37,-0.40
2018,04,02,06,38,-0.40
2018,04,02,06,39,-0.40
2018,04,02,06,40,-0.40
2018,04,02,06,41,-0.40
2018,04,02,06,42,-0.40
2018,04,02,06,43,-0.50
2018,04,02,06,44,-0.60
2018,04,02,06,45,-0.60
2018,04,02,06,46,-0.60
2018,04,02,06,47,-0.60
2018,04,02,06,48,-0.60
2018,04,02,06,49,-0.60
2018,04,02,06,50,-0.60
2018,04,02,06,51,-0.60
2018,04,02,06,52,-0.60
2018,04,02,06,53,-0.60
2018,04,02,06,54,-0.60
2018,04,02,06,55,-0.60
2018,04,02,06,56,-0.60
2018,04,02,06,57,-0.60
2018,04,02,06,58,-0.40
2018,04,02,06,59,-0.40
2018,04,02,07,00,-0.40
2018,04,02,07,01,-0.40
2018,04,02,07,02,-0.40
2018,04,02,07,03,-0.40
2018,04,02,07,04,-0.40
2018,04,02,07,05,-0.40
2018,04,02,07,06,-0.30
2018,04,02,07,07,-0.30
2018,04,02,07,08,-0.30
2018,04,02,07,09,-0.30
2018,04,02,07,10,-0.30
2018,04,02,07,11,-0.30
2018,04,02,07,12,-0.30
2018,04,02,07,13,-0.30
2018,04,02,07,14,-0.30
2018,04,02,07,15,-0.30
2018,04,02,07,16,-0.30
2018,04,02,07,17,-0.30
2018,04,02,07,18,-0.30
2018,04,02,07,19,-0.20
2018,04,02,07,20,-0.20
2018,04,02,07,21,-0.10
2018,04,02,07,22,-0.10
2018,04,02,07,23,-0.10
2018,04,02,07,24,0.00
2018,04,02,07,25,0.10
2018,04,02,07,26,0.10
2018,04,02,07,27,0.10
2018,04,02,07,28,0.10
2018,04,02,07,29,0.20
2018,04,02,07,30,0.20
2018,04,02,07,31,0.30
2018,04,02,07,32,0.30
2018,04,02,07,33,0.30
2018,04,02,07,34,0.30
2018,04,02,07,35,0.40
2018,04,02,07,36,0.40
2018,04,02,07,37,0.40
2018,04,02,07,38,0.40
2018,04,02,07,39,0.40
2018,04,02,07,40,0.50
2018,04,02,07,41,0.50
2018,04,02,07,42,0.60
2018,04,02,07,43,0.70
2018,04,02,07,44,0.70
2018,04,02,07,45,0.80
2018,04,02,07,46,0.90
2018,04,02,07,47,1.00
2018,04,02,07,48,1.10
2018,04,02,07,49,1.10
2018,04,02,07,50,1.20
2018,04,02,07,51,1.30
2018,04,02,07,52,1.30
2018,04,02,07,53,1.40
2018,04,02,07,54,1.50
2018,04,02,07,55,1.60
2018,04,02,07,56,1.60
2018,04,02,07,57,1.70
2018,04,02,07,58,1.70
2018,04,02,07,59,1.80
2018,04,02,08,00,1.80
2018,04,02,08,01,1.80
2018,04,02,08,02,2.00
2018,04,02,08,03,2.10
2018,04,02,08,04,2.20
2018,04,02,08,05,2.20
2018,04,02,08,06,2.30
2018,04,02,08,07,2.40
2018,04,02,08,08,2.40
2018,04,02,08,09,2.50
2018,04,02,08,10,2.50
2018,04,02,08,11,2.60
2018,04,02,08,12,2.70
2018,04,02,08,13,2.70
2018,04,02,08,14,2.80
2018,04,02,08,15,2.90
2018,04,02,08,16,2.90
2018,04,02,08,17,3.00
2018,04,02,08,18,3.10
2018,04,02,08,19,3.20
2018,04,02,08,20,3.20
2018,04,02,08,21,3.30
2018,04,02,08,22,3.40
2018,04,02,08,23,3.50
2018,04,02,08,24,3.50
2018,04,02,08,25,3.60
2018,04,02,08,26,3.70
2018,04,02,08,27,3.80
2018,04,02,08,28,3.80
2018,04,02,08,29,3.90
2018,04,02,08,30,4.00
2018,04,02,08,31,4.10
2018,04,02,08,32,4.20
2018,04,02,08,33,4.30
2018,04,02,08,34,4.30
2018,04,02,08,35,4.40
2018,04,02,08,36,4.50
2018,04,02,08,37,4.50
2018,04,02,08,38,4.60
2018,04,02,08,39,4.70
2018,04,02,08,40,4.80
2018,04,02,08,41,4.90
2018,04,02,08,42,4.90
2018,04,02,08,43,4.90
2018,04,02,08,44,5.10
2018,04,02,08,45,5.10
2018,04,02,08,46,5.10
2018,04,02,08,47,5.10
2018,04,02,08,48,5.10
2018,04,02,08,49,5.20
2018,04,02,08,50,5.20
2018,04,02,08,51,5.20
2018,04,02,08,52,5.30
2018,04,02,08,53,5.30
2018,04,02,08,54,5.30
2018,04,02,08,55,5.30
2018,04,02,08,56,5.40
2018,04,02,08,57,5.40
2018,04,02,08,58,5.40
2018,04,02,08,59,5.50
2018,04,02,09,00,5.50
2018,04,02,09,01,5.60
2018,04,02,09,02,5.70
2018,04,02,09,03,5.70
2018,04,02,09,04,5.70
2018,04,02,09,05,5.80
2018,04,02,09,06,5.80
2018,04,02,09,07,5.90
2018,04,02,09,08,5.90
2018,04,02,09,09,6.00
2018,04,02,09,10,6.00
2018,04,02,09,11,6.10
2018,04,02,09,12,6.10
2018,04,02,09,13,6.10
2018,04,02,09,14,6.10
2018,04,02,09,15,6.20
2018,04,02,09,16,6.20
2018,04,02,09,17,6.20
2018,04,02,09,18,6.20
2018,04,02,09,19,6.30
2018,04,02,09,20,6.40
2018,04,02,09,21,6.40
2018,04,02,09,22,6.40
2018,04,02,09,23,6.50
2018,04,02,09,24,6.60
2018,04,02,09,25,6.60
2018,04,02,09,26,6.60
2018,04,02,09,27,6.60
2018,04,02,09,28,6.60
2018,04,02,09,29,6.60
2018,04,02,09,30,6.70
2018,04,02,09,31,6.70
2018,04,02,09,32,6.80
2018,04,02,09,33,6.80
2018,04,02,09,34,6.80
2018,04,02,09,35,6.80
2018,04,02,09,36,6.80
2018,04,02,09,37,6.80
2018,04,02,09,38,6.80
2018,04,02,09,39,6.80
2018,04,02,09,40,6.90
2018,04,02,09,41,6.90
2018,04,02,09,42,6.80
2018,04,02,09,43,6.80
2018,04,02,09,44,6.90
2018,04,02,09,45,7.00
2018,04,02,09,46,7.00
2018,04,02,09,47,7.10
2018,04,02,09,48,7.10
2018,04,02,09,49,7.10
2018,04,02,09,50,7.20
2018,04,02,09,51,7.30
2018,04,02,09,52,7.30
2018,04,02,09,53,7.40
2018,04,02,09,54,7.50
2018,04,02,09,55,7.50
2018,04,02,09,56,7.50
2018,04,02,09,57,7.60
2018,04,02,09,58,7.60
2018,04,02,09,59,7.60
2018,04,02,10,00,7.60
2018,04,02,10,01,7.70
2018,04,02,10,02,7.70
2018,04,02,10,03,7.60
2018,04,02,10,04,7.60
2018,04,02,10,05,7.60
2018,04,02,10,06,7.70
2018,04,02,10,07,7.70
2018,04,02,10,08,7.80
2018,04,02,10,09,7.80
2018,04,02,10,10,7.80
2018,04,02,10,11,7.80
2018,04,02,10,12,7.80
2018,04,02,10,13,7.70
2018,04,02,10,14,7.60
2018,04,02,10,15,7.60
2018,04,02,10,16,7.50
2018,04,02,10,17,7.40
2018,04,02,10,18,7.30
2018,04,02,10,19,7.20
2018,04,02,10,20,7.10
2018,04,02,10,21,7.00
2018,04,02,10,22,7.00
2018,04,02,10,23,6.90
2018,04,02,10,24,6.90
2018,04,02,10,25,6.80
2018,04,02,10,26,6.80
2018,04,02,10,27,6.80
2018,04,02,10,28,6.90
2018,04,02,10,29,6.80
2018,04,02,10,30,6.80
2018,04,02,10,31,6.70
2018,04,02,10,32,6.70
2018,04,02,10,33,6.60
2018,04,02,10,34,6.60
2018,04,02,10,35,6.50
2018,04,02,10,36,6.40
2018,04,02,10,37,6.40
2018,04,02,10,38,6.40
2018,04,02,10,39,6.40
2018,04,02,10,40,6.40
2018,04,02,10,41,6.40
2018,04,02,10,42,6.40
2018,04,02,10,43,6.40
2018,04,02,10,44,6.40
2018,04,02,10,45,6.40
2018,04,02,10,46,6.40
2018,04,02,10,47,6.40
2018,04,02,10,48,6.40
2018,04,02,10,49,6.50
2018,04,02,10,50,6.50
2018,04,02,10,51,6.40
2018,04,02,10,52,6.40
2018,04,02,10,53,6.40
2018,04,02,10,54,6.40
2018,04,02,10,55,6.40
2018,04,02,10,56,6.40
2018,04,02,10,57,6.40
2018,04,02,10,58,6.40
2018,04,02,10,59,6.40
2018,04,02,11,00,6.50
2018,04,02,11,01,6.50
2018,04,02,11,02,6.40
2018,04,02,11,03,6.50
2018,04,02,11,04,6.60
2018,04,02,11,05,6.60
2018,04,02,11,06,6.70
2018,04,02,11,07,6.80
2018,04,02,11,08,6.80
2018,04,02,11,09,6.90
2018,04,02,11,10,7.10
2018,04,02,11,11,7.20
2018,04,02,11,12,7.30
2018,04,02,11,13,7.30
2018,04,02,11,14,7.50
2018,04,02,11,15,7.60
2018,04,02,11,16,7.70
2018,04,02,11,17,7.80
2018,04,02,11,18,7.80
2018,04,02,11,19,7.70
2018,04,02,11,20,7.60
2018,04,02,11,21,7.60
2018,04,02,11,22,7.50
2018,04,02,11,23,7.50
2018,04,02,11,24,7.50
2018,04,02,11,25,7.60
2018,04,02,11,26,7.70
2018,04,02,11,27,7.80
2018,04,02,11,28,7.80
2018,04,02,11,29,7.90
2018,04,02,11,30,8.00
2018,04,02,11,31,8.10
2018,04,02,11,32,8.20
2018,04,02,11,33,8.30
2018,04,02,11,34,8.40
2018,04,02,11,35,8.50
2018,04,02,11,36,8.60
2018,04,02,11,37,8.70
2018,04,02,11,38,8.70
2018,04,02,11,39,8.60
2018,04,02,11,40,8.50
2018,04,02,11,41,8.50
2018,04,02,11,42,8.50
2018,04,02,11,43,8.50
2018,04,02,11,44,8.50
2018,04,02,11,45,8.40
2018,04,02,11,46,8.30
2018,04,02,11,47,8.30
2018,04,02,11,48,8.30
2018,04,02,11,49,8.20
2018,04,02,11,50,8.30
2018,04,02,11,51,8.40
2018,04,02,11,52,8.50
2018,04,02,11,53,8.50
2018,04,02,11,54,8.60
2018,04,02,11,55,8.50
2018,04,02,11,56,8.50
2018,04,02,11,57,8.50
2018,04,02,11,58,8.40
2018,04,02,11,59,8.30
2018,04,02,12,00,8.20
2018,04,02,12,01,8.30
2018,04,02,12,02,8.40
2018,04,02,12,03,8.40
2018,04,02,12,04,8.50
2018,04,02,12,05,8.70
2018,04,02,12,06,8.80
2018,04,02,12,07,9.00
2018,04,02,12,08,9.20
2018,04,02,12,09,9.30
2018,04,02,12,10,9.30
2018,04,02,12,11,9.30
2018,04,02,12,12,9.20
2018,04,02,12,13,9.20
2018,04,02,12,14,9.00
2018,04,02,12,15,9.00
2018,04,02,12,16,9.00
2018,04,02,12,17,9.20
2018,04,02,12,18,9.40
2018,04,02,12,19,9.60
2018,04,02,12,20,9.50
2018,04,02,12,21,9.50
2018,04,02,12,22,9.60
2018,04,02,12,23,9.70
2018,04,02,12,24,9.80
2018,04,02,12,25,9.90
2018,04,02,12,26,10.00
2018,04,02,12,27,10.10
2018,04,02,12,28,10.20
2018,04,02,12,29,10.30
2018,04,02,12,30,10.40
2018,04,02,12,31,10.40
2018,04,02,12,32,10.40
2018,04,02,12,33,10.40
2018,04,02,12,34,10.40
2018,04,02,12,35,10.50
2018,04,02,12,36,10.60
2018,04,02,12,37,10.60
2018,04,02,12,38,10.60
2018,04,02,12,39,10.60
2018,04,02,12,40,10.70
2018,04,02,12,41,10.70
2018,04,02,12,42,10.70
2018,04,02,12,43,10.60
2018,04,02,12,44,10.60
2018,04,02,12,45,10.50
2018,04,02,12,46,10.60
2018,04,02,12,47,10.60
2018,04,02,12,48,10.60
2018,04,02,12,49,10.60
2018,04,02,12,50,10.60
2018,04,02,12,51,10.60
2018,04,02,12,52,10.50
2018,04,02,12,53,10.60
2018,04,02,12,54,10.60
2018,04,02,12,55,10.70
2018,04,02,12,56,10.50
2018,04,02,12,57,10.40
2018,04,02,12,58,10.40
2018,04,02,12,59,10.40
2018,04,02,13,00,10.50
2018,04,02,13,01,10.60
2018,04,02,13,02,10.70
2018,04,02,13,03,10.70
2018,04,02,13,04,10.80
2018,04,02,13,05,10.80
2018,04,02,13,06,10.80
2018,04,02,13,07,10.80
2018,04,02,13,08,10.80
2018,04,02,13,09,10.80
2018,04,02,13,10,10.80
2018,04,02,13,11,10.80
2018,04,02,13,12,10.80
2018,04,02,13,13,10.90
2018,04,02,13,14,10.90
2018,04,02,13,15,10.90
2018,04,02,13,16,10.90
2018,04,02,13,17,10.90
2018,04,02,13,18,10.90
2018,04,02,13,19,10.80
2018,04,02,13,20,10.80
2018,04,02,13,21,10.80
2018,04,02,13,22,10.80
2018,04,02,13,23,10.90
2018,04,02,13,24,10.90
2018,04,02,13,25,11.00
2018,04,02,13,26,10.90
2018,04,02,13,27,11.00
2018,04,02,13,28,11.10
2018,04,02,13,29,11.00
2018,04,02,13,30,10.90
2018,04,02,13,31,10.70
2018,04,02,13,32,10.70
2018,04,02,13,33,10.70
2018,04,02,13,34,10.70
2018,04,02,13,35,10.80
2018,04,02,13,36,10.90
2018,04,02,13,37,10.90
2018,04,02,13,38,10.90
2018,04,02,13,39,10.90
2018,04,02,13,40,10.80
2018,04,02,13,41,10.70
2018,04,02,13,42,10.70
2018,04,02,13,43,10.80
2018,04,02,13,44,10.80
2018,04,02,13,45,10.90
2018,04,02,13,46,10.90
2018,04,02,13,47,10.90
2018,04,02,13,48,11.10
2018,04,02,13,49,11.10
2018,04,02,13,50,11.00
2018,04,02,13,51,11.10
2018,04,02,13,52,11.10
2018,04,02,13,53,11.10
2018,04,02,13,54,11.20
2018,04,02,13,55,11.20
2018,04,02,13,56,11.10
2018,04,02,13,57,11.10
2018,04,02,13,58,11.10
2018,04,02,13,59,11.10
2018,04,02,14,00,10.90
2018,04,02,14,01,10.70
2018,04,02,14,02,10.60
2018,04,02,14,03,10.60
2018,04,02,14,04,10.60
2018,04,02,14,05,10.70
2018,04,02,14,06,10.80
2018,04,02,14,07,11.00
2018,04,02,14,08,11.20
2018,04,02,14,09,11.30
2018,04,02,14,10,11.30
2018,04,02,14,11,11.40
2018,04,02,14,12,11.40
2018,04,02,14,13,11.30
2018,04,02,14,14,11.40
2018,04,02,14,15,11.40
2018,04,02,14,16,11.40
2018,04,02,14,17,11.50
2018,04,02,14,18,11.60
2018,04,02,14,19,11.60
2018,04,02,14,20,11.60
2018,04,02,14,21,11.60
2018,04,02,14,22,11.60
2018,04,02,14,23,11.40
2018,04,02,14,24,11.40
2018,04,02,14,25,11.40
2018,04,02,14,26,11.40
2018,04,02,14,27,11.40
2018,04,02,14,28,11.30
2018,04,02,14,29,11.40
2018,04,02,14,30,11.40
2018,04,02,14,31,11.40
2018,04,02,14,32,11.20
2018,04,02,14,33,11.10
2018,04,02,14,34,11.10
2018,04,02,14,35,11.10
2018,04,02,14,36,11.20
2018,04,02,14,37,11.30
2018,04,02,14,38,11.40
2018,04,02,14,39,11.40
2018,04,02,14,40,11.40
2018,04,02,14,41,11.60
2018,04,02,14,42,11.60
2018,04,02,14,43,11.60
2018,04,02,14,44,11.60
2018,04,02,14,45,11.50
2018,04,02,14,46,11.50
2018,04,02,14,47,11.60
2018,04,02,14,48,11.60
2018,04,02,14,49,11.60
2018,04,02,14,50,11.60
2018,04,02,14,51,11.60
2018,04,02,14,52,11.50
2018,04,02,14,53,11.40
2018,04,02,14,54,11.30
2018,04,02,14,55,11.30
2018,04,02,14,56,11.20
2018,04,02,14,57,11.20
2018,04,02,14,58,11.10
2018,04,02,14,59,11.20
2018,04,02,15,00,11.30
2018,04,02,15,01,11.40
2018,04,02,15,02,11.40
2018,04,02,15,03,11.40
2018,04,02,15,04,11.30
2018,04,02,15,05,11.30
2018,04,02,15,06,11.30
2018,04,02,15,07,11.20
2018,04,02,15,08,11.20
2018,04,02,15,09,11.10
2018,04,02,15,10,11.10
2018,04,02,15,11,11.10
2018,04,02,15,12,11.20
2018,04,02,15,13,11.20
2018,04,02,15,14,11.30
2018,04,02,15,15,11.20
2018,04,02,15,16,11.20
2018,04,02,15,17,11.20
2018,04,02,15,18,11.20
2018,04,02,15,19,11.20
2018,04,02,15,20,11.10
2018,04,02,15,21,11.10
2018,04,02,15,22,11.20
2018,04,02,15,23,11.20
2018,04,02,15,24,11.10
2018,04,02,15,25,11.10
2018,04,02,15,26,11.10
2018,04,02,15,27,11.10
2018,04,02,15,28,11.10
2018,04,02,15,29,11.10
2018,04,02,15,30,11.10
2018,04,02,15,31,11.10
2018,04,02,15,32,11.10
2018,04,02,15,33,11.20
2018,04,02,15,34,11.30
2018,04,02,15,35,11.30
2018,04,02,15,36,11.30
2018,04,02,15,37,11.30
2018,04,02,15,38,11.30
2018,04,02,15,39,11.30
2018,04,02,15,40,11.30
2018,04,02,15,41,11.30
2018,04,02,15,42,11.20
2018,04,02,15,43,11.10
2018,04,02,15,44,11.00
2018,04,02,15,45,10.90
2018,04,02,15,46,10.90
2018,04,02,15,47,10.90
2018,04,02,15,48,10.90
2018,04,02,15,49,10.90
2018,04,02,15,50,10.90
2018,04,02,15,51,10.90
2018,04,02,15,52,10.80
2018,04,02,15,53,10.60
2018,04,02,15,54,10.60
2018,04,02,15,55,10.50
2018,04,02,15,56,10.40
2018,04,02,15,57,10.50
2018,04,02,15,58,10.50
2018,04,02,15,59,10.40
2018,04,02,16,00,10.50
2018,04,02,16,01,10.60
2018,04,02,16,02,10.60
2018,04,02,16,03,10.70
2018,04,02,16,04,10.80
2018,04,02,16,05,10.90
2018,04,02,16,06,10.90
2018,04,02,16,07,10.80
2018,04,02,16,08,10.60
2018,04,02,16,09,10.60
2018,04,02,16,10,10.50
2018,04,02,16,11,10.40
2018,04,02,16,12,10.40
2018,04,02,16,13,10.40
2018,04,02,16,14,10.40
2018,04,02,16,15,10.40
2018,04,02,16,16,10.40
2018,04,02,16,17,10.40
2018,04,02,16,18,10.40
2018,04,02,16,19,10.40
2018,04,02,16,20,10.50
2018,04,02,16,21,10.60
2018,04,02,16,22,10.60
2018,04,02,16,23,10.60
2018,04,02,16,24,10.60
2018,04,02,16,25,10.60
2018,04,02,16,26,10.60
2018,04,02,16,27,10.60
2018,04,02,16,28,10.50
2018,04,02,16,29,10.40
2018,04,02,16,30,10.40
2018,04,02,16,31,10.40
2018,04,02,16,32,10.40
2018,04,02,16,33,10.40
2018,04,02,16,34,10.40
2018,04,02,16,35,10.40
2018,04,02,16,36,10.40
2018,04,02,16,37,10.40
2018,04,02,16,38,10.40
2018,04,02,16,39,10.40
2018,04,02,16,40,10.40
2018,04,02,16,41,10.40
2018,04,02,16,42,10.30
2018,04,02,16,43,10.20
2018,04,02,16,44,10.10
2018,04,02,16,45,10.10
2018,04,02,16,46,10.10
2018,04,02,16,47,10.10
2018,04,02,16,48,10.10
2018,04,02,16,49,10.10
2018,04,02,16,50,10.10
2018,04,02,16,51,10.10
2018,04,02,16,52,10.20
2018,04,02,16,53,10.20
2018,04,02,16,54,10.20
2018,04,02,16,55,10.30
2018,04,02,16,56,10.30
2018,04,02,16,57,10.20
2018,04,02,16,58,10.20
2018,04,02,16,59,10.10
2018,04,02,17,00,10.10
2018,04,02,17,01,10.10
2018,04,02,17,02,10.10
2018,04,02,17,03,10.10
2018,04,02,17,04,10.10
2018,04,02,17,05,10.10
2018,04,02,17,06,10.20
2018,04,02,17,07,10.20
2018,04,02,17,08,10.20
2018,04,02,17,09,10.20
2018,04,02,17,10,10.20
2018,04,02,17,11,10.20
2018,04,02,17,12,10.20
2018,04,02,17,13,10.30
2018,04,02,17,14,10.30
2018,04,02,17,15,10.20
2018,04,02,17,16,10.20
2018,04,02,17,17,10.10
2018,04,02,17,18,10.10
2018,04,02,17,19,10.00
2018,04,02,17,20,9.90
2018,04,02,17,21,9.90
2018,04,02,17,22,9.90
2018,04,02,17,23,10.00
2018,04,02,17,24,10.10
2018,04,02,17,25,10.20
2018,04,02,17,26,10.20
2018,04,02,17,27,10.30
2018,04,02,17,28,10.20
2018,04,02,17,29,10.20
2018,04,02,17,30,10.20
2018,04,02,17,31,10.20
2018,04,02,17,32,10.10
2018,04,02,17,33,10.10
2018,04,02,17,34,10.00
2018,04,02,17,35,9.90
2018,04,02,17,36,9.90
2018,04,02,17,37,9.90
2018,04,02,17,38,9.90
2018,04,02,17,39,9.90
2018,04,02,17,40,9.90
2018,04,02,17,41,9.90
2018,04,02,17,42,9.90
2018,04,02,17,43,9.80
2018,04,02,17,44,9.70
2018,04,02,17,45,9.60
2018,04,02,17,46,9.50
2018,04,02,17,47,9.40
2018,04,02,17,48,9.30
2018,04,02,17,49,9.30